Location: Arcabell
(42.4308°N, 1.4823°E)
Time: 21:22:13
(UTC+00:00)

DMSP 5D-2 F13 DEB - Visible Passes

Search period start: 13 January 2026 00:00
Search period end: 23 January 2026 00:00
Orbit: 826 x 833 km, 98.8° (Epoch: 13 January)

Date Brightness Start Highest point End Pass type
(mag) Time Alt. Az. Time Alt. Az. Time Alt. Az.
13 Jan ? 05:55:34 10° NE 06:00:12 28° E 06:04:47 10° SSE visible
13 Jan ? 17:19:13 10° SE 17:24:26 51° ENE 17:29:41 10° N visible
13 Jan ? 19:00:54 10° SW 19:04:59 22° W 19:09:05 10° NW visible
14 Jan ? 05:38:07 10° NE 05:42:00 20° E 05:45:50 10° SE visible
14 Jan ? 18:42:02 10° SSW 18:46:47 31° W 18:51:34 10° NW visible
15 Jan ? 05:21:13 10° ENE 05:23:45 13° E 05:26:16 10° ESE visible
15 Jan ? 18:23:30 10° S 18:28:39 44° W 18:33:50 10° NNW visible
16 Jan ? 06:41:10 10° NNE 06:46:35 73° ESE 06:51:58 10° S visible
16 Jan ? 18:05:12 10° S 18:10:34 64° WSW 18:15:58 10° NNW visible
17 Jan ? 06:23:16 10° NNE 06:28:31 50° E 06:33:44 10° S visible
17 Jan ? 17:47:06 10° SSE 17:52:31 89° ENE 17:57:59 10° NNW visible
17 Jan ? 19:31:39 10° WSW 19:33:29 12° W 19:35:20 10° WNW visible
18 Jan ? 06:05:29 10° NNE 06:10:24 34° E 06:15:16 10° SSE visible
18 Jan ? 17:29:12 10° SSE 17:34:32 63° ENE 17:39:54 10° N visible
18 Jan ? 19:11:41 10° SW 19:15:13 18° W 19:18:46 10° NW visible
19 Jan ? 05:47:53 10° NE 05:52:13 24° E 05:56:30 10° SSE visible
19 Jan ? 18:52:35 10° SSW 18:56:59 25° W 19:01:26 10° NW visible
20 Jan ? 05:30:38 10° NE 05:34:00 17° E 05:37:21 10° SE visible
20 Jan ? 18:33:53 10° SSW 18:38:49 36° W 18:43:49 10° NNW visible
21 Jan ? 05:14:21 10° ENE 05:15:43 11° E 05:17:05 10° ESE visible
21 Jan ? 18:15:27 10° S 18:20:42 52° W 18:26:01 10° NNW visible
22 Jan ? 06:33:18 10° NNE 06:38:40 61° ESE 06:43:59 10° S visible
22 Jan ? 17:57:14 10° S 18:02:38 76° WSW 18:08:05 10° NNW visible
